Hourly Weather Roundup
Issued by NWS Central Illinois

Home | Current Version | Previous Version | Text Only | Print | Product List | Glossary On
Versions: 1 2 3 4 5 6 7 8 9 10 11 12 13 14 15 16 17 18 19 20 21 22 23 24 25 26 27 28 29 30 31 32 33 34 35 36 37 38 39 40 41 42 43 44 45 46 47 48 49 50
000
NZUS43 KILX 101210
HWRILX

AREA WEATHER ROUNDUP
NATIONAL WEATHER SERVICE, LINCOLN IL
700 AM CDT THU JUL 10 2014


CITY           SKY/WX    TMP DP  RH WIND       PRES   REMARKS
BLOOMINGTON    FAIR      60  55  83 E5        30.14R
CHAMPAIGN      FAIR      64  57  78 NE9       30.13R
6HR MIN TEMP:  59; 6HR MAX TEMP:  64;

DECATUR        FAIR      61  57  87 CALM      30.13R
6HR MIN TEMP:  56; 6HR MAX TEMP:  65;

EFFINGHAM      FAIR      64  57  77 NE3       30.11R
FLORA          FAIR      63  59  88 CALM      30.10R
GALESBURG      FAIR      60  60 100 E3        30.12R
JACKSONVILLE   FAIR      62  59  91 CALM      30.13R
6HR MIN TEMP:  57; 6HR MAX TEMP:  62; 6HR PCP:  0.01;

LACON          FAIR      59  55  86 CALM      30.12R
LAWRENCEVILLE  FAIR      66  61  84 CALM      30.09R
6HR MIN TEMP:  60; 6HR MAX TEMP:  66;

LITCHFIELD     FAIR      64  58  81 NE3       30.12R
$$


CITY           SKY/WX    TMP DP  RH WIND       PRES   REMARKS
LINCOLN        FAIR      61  57  87 CALM      30.10R
6HR MIN TEMP:  56; 6HR MAX TEMP:  62;

MACOMB         FAIR      57  57  99 CALM      30.14R
MATTOON          N/A     60  56  86 CALM      30.11R
6HR MIN TEMP:  56; 6HR MAX TEMP:  63;

MT CARMEL AP   FAIR      64  61  88 CALM      30.09R
OLNEY-NOBLE AP FAIR      64  61  88 CALM      30.10R
PARIS          FAIR      62  59  92 NE3       30.12R
6HR MIN TEMP:  55; 6HR MAX TEMP:  62;

PEORIA         FAIR      65  58  78 NE3       30.13R
6HR MIN TEMP:  60; 6HR MAX TEMP:  65;

PONTIAC        FAIR      61  59  94 CALM      30.13R
RANTOUL        FAIR      65  55  71 NE3       30.14R
6HR MIN TEMP:  60; 6HR MAX TEMP:  66;

ROBINSON       FAIR      64  62  93 CALM      30.11R
6HR MIN TEMP:  58; 6HR MAX TEMP:  64;

SPRINGFIELD    FAIR      62  58  86 CALM      30.13R
6HR MIN TEMP:  57; 6HR MAX TEMP:  62;

TAYLORVILLE    FAIR      57  55  94 CALM      30.12R
$$

...REGIONAL REPORTS...


CITY           SKY/WX    TMP DP  RH WIND       PRES   REMARKS
CHICAGO O`HARE FAIR      65  56  72 CALM      30.14R
KANKAKEE       FAIR      59  59  97 CALM      30.14S
MOLINE         FAIR      61  57  87 E3        30.11R
MOUNT VERNON   FAIR      63  57  82 N3        30.11R
PITTSFIELD     FAIR      60  57  89 CALM      30.14R
QUINCY         FAIR      64  56  75 S3        30.12R
ROCKFORD       FAIR      59  55  87 CALM      30.15F
$$


CITY           SKY/WX    TMP DP  RH WIND       PRES   REMARKS
BURLINGTON     FAIR      64  62  93 CALM      30.11R
CEDAR RAPIDS   FAIR      60  57  89 CALM      30.10R
DES MOINES     FAIR      65  57  75 S9        30.08R
KIRKSVILLE     FAIR      61  57  87 CALM      30.13R
OTTUMWA        FAIR      62  58  86 S6        30.10R
ST LOUIS       FAIR      68  59  73 CALM      30.12R
$$


CITY           SKY/WX    TMP DP  RH WIND       PRES   REMARKS
TERRE HAUTE    FAIR      63  59  87 N5        30.11R
EVANSVILLE     FAIR      69  61  75 N5        30.08R
INDIANAPOLIS   FAIR      65  57  75 NE8       30.10R
LAFAYETTE      FAIR      63  57  81 NE3       30.12R
MADISON        FAIR      59  54  83 CALM      30.13S
MILWAUKEE      FAIR      62  56  80 CALM      30.15R
$$




USA.gov is the U.S. government's official web portal to all federal, state and local government web resources and services.